カタログに戻る

CZ-6A DEB

運用中SSO
NORAD 54941·DEBRIS·🇨🇳 China

打ち上げ Nov 11, 2022 から Taiyuan Satellite Launch Center

Loading…

次のパス (今後24時間)

TLE

最新Source: Space-Track

元期: Sep 14, 2026, 11:24 UTC

1 54941U 22151SE  26257.47554266  .00004735  00000-0  16763-2 0  9999
2 54941  98.7980 278.3543 0035870  11.4274 348.7717 14.34675158196995

AllMySatでCZ-6A DEBをリアルタイム追跡

Download on the App Store